Location: Newark
(42.7133°N, 87.7910°W)
Time: 23:21:21
(UTC+00:00)

A-11 Canister half - Pass Details

Date: 28 September 2019
Orbit: 1527 x 1682 km, 47.3° (Epoch: 17 October)

Event Time Altitude Azimuth Distance (km) Brightness Sun altitude
Exits shadow 09:32:18 38° 271° (W) 2,211 9.3 -24.6°
Maximum altitude 09:36:32 73° 347° (NNW) 1,617 9.0 -23.9°
Drops below altitude 10° 09:46:11 10° 72° (ENE) 3,808 12.2 -22.3°
Sets 09:49:22 0° 75° (ENE) 4,815 13.1 -21.7°
